Zurück zum Katalog

DELTA 1 DEB

AktivSSO
NORAD 7126·DEBRIS·🇺🇸 United States

Gestartet Nov 6, 1973 von Vandenberg Space Force Base

Loading…

Nächste Überflüge (nächste 24 Stunden)

TLE

AktuellSource: Space-Track

Epoche: Sep 14, 2026, 10:05 UTC

1 07126U 73086CQ  26257.42070485  .00000086  00000-0  83150-3 0  9996
2 07126 102.0012 232.1882 0283188 102.4206  48.6526 12.41136845385456

Verfolge DELTA 1 DEB in Echtzeit mit AllMySat

Download on the App Store